This is the latest recevied weather packets stored in our database for station/object KC1TEM-13. If no packets are shown the sender has not sent any weather packets the latest 10 day(s).
| Time | Temp. | Humidity | Pressure | Rain* | Wind** | Luminosity | Snow |
|---|---|---|---|---|---|---|---|
| 1778023200 | 23.33° C | 43% | 1006.6 hPa | 0 mm | - | 16 W/m² | - |
| 1778022897 | 23.89° C | 43% | 1006.6 hPa | 0 mm | - | 19 W/m² | - |
| 1778022596 | 23.89° C | 43% | 1006.3 hPa | 0 mm | - | 23 W/m² | - |
| 1778022293 | 23.89° C | 42% | 1006.1 hPa | 0 mm | - | 27 W/m² | - |
| 1778021989 | 23.89° C | 42% | 1006.1 hPa | 0 mm | - | 33 W/m² | - |
| 1778021686 | 24.44° C | 41% | 1006.3 hPa | 0 mm | - | 42 W/m² | - |
| 1778021382 | 24.44° C | 40% | 1006 hPa | 0 mm | - | 49 W/m² | - |
| 1778021079 | 25° C | 39% | 1006 hPa | 0 mm | - | 57 W/m² | - |
| 1778020776 | 25° C | 39% | 1006 hPa | 0 mm | - | 63 W/m² | - |
| 1778020473 | 25° C | 39% | 1005.9 hPa | 0 mm | - | 66 W/m² | - |
| 1778020170 | 25° C | 38% | 1005.7 hPa | 0 mm | - | 71 W/m² | - |
| 1778019866 | 25.56° C | 38% | 1005.7 hPa | 0 mm | - | 75 W/m² | - |
| 1778019562 | 25.56° C | 38% | 1005.8 hPa | 0 mm | - | 81 W/m² | - |
| 1778019260 | 25.56° C | 39% | 1005.6 hPa | 0 mm | - | 79 W/m² | - |
| 1778018957 | 25.56° C | 37% | 1005.5 hPa | 0 mm | - | 82 W/m² | - |
| 1778018653 | 26.11° C | 37% | 1005.2 hPa | 0 mm | - | 88 W/m² | - |
| 1778018351 | 26.11° C | 35% | 1005.3 hPa | 0 mm | - | 93 W/m² | - |
| 1778018049 | 26.11° C | 35% | 1005.2 hPa | 0 mm | - | 94 W/m² | - |
| 1778017747 | 26.11° C | 35% | 1005 hPa | 0 mm | - | 106 W/m² | - |
| 1778017444 | 26.67° C | 34% | 1004.9 hPa | 0 mm | - | 111 W/m² | - |
| 1778017141 | 26.67° C | 34% | 1005.1 hPa | 0 mm | - | 112 W/m² | - |
| 1778016839 | 27.22° C | 33% | 1005 hPa | 0 mm | - | 176 W/m² | - |
| 1778016535 | 27.22° C | 32% | 1004.9 hPa | 0 mm | - | 212 W/m² | - |
| 1778016232 | 27.78° C | 33% | 1004.8 hPa | 0 mm | - | 177 W/m² | - |
| 1778015928 | 27.78° C | 31% | 1004.8 hPa | 0 mm | - | 151 W/m² | - |
* Rain latest hour (hover to see other rain measurements)
** Current wind speed in m/s (hover to see current wind gust speed)